Terminal Aerodrome Forecast
Issued by NWS

Home | Current Version | Previous Version | Text Only | Print | Product List | Glossary On
Versions: 1 2 3 4 5 6 7 8 9 10 11 12 13 14 15 16 17 18 19 20 21 22 23 24 25 26 27 28 29 30 31 32 33 34 35 36 37 38 39 40
000
FTUS46 KPQR 282330
TAFONP
TAF
KONP 282330Z 2900/2924 32010KT P6SM -SHRA SCT025 BKN045 BKN060
     FM290500 30012KT P6SM -SHRA BKN025 OVC040
     FM291300 35006KT P6SM VCSH BKN025 OVC035
     FM291800 03008KT P6SM BKN025 BKN040
     FM292100 08011G20KT P6SM SCT040=

USA.gov is the U.S. government's official web portal to all federal, state and local government web resources and services.